This is the latest recevied weather packets stored in our database for station/object JO1YDG-13. If no packets are shown the sender has not sent any weather packets the latest 10 day(s).
| Time | Temp. | Humidity | Pressure | Rain* | Wind** | Luminosity | Snow |
|---|---|---|---|---|---|---|---|
| 1787974312 | 27.78° C | 77% | 1003.4 hPa | 0 mm | - | - | - |
| 1787974011 | 27.78° C | 77% | 1003.3 hPa | 0 mm | - | - | - |
| 1787973711 | 27.78° C | 78% | 1003.3 hPa | 0 mm | - | - | - |
| 1787973413 | 27.78° C | 78% | 1003.3 hPa | 0 mm | - | - | - |
| 1787973113 | 27.78° C | 78% | 1003.5 hPa | 0 mm | - | - | - |
| 1787972813 | 27.78° C | 78% | 1003.5 hPa | 0 mm | - | - | - |
| 1787972512 | 27.78° C | 78% | 1003.6 hPa | 0 mm | - | - | - |
| 1787972212 | 27.78° C | 79% | 1003.6 hPa | 0 mm | - | - | - |
| 1787971912 | 27.78° C | 78% | 1003.6 hPa | 0 mm | - | - | - |
| 1787971612 | 27.78° C | 79% | 1003.8 hPa | 0 mm | - | - | - |
| 1787971311 | 27.22° C | 80% | 1003.8 hPa | 0 mm | - | - | - |
| 1787971011 | 27.22° C | 80% | 1004 hPa | 0 mm | - | - | - |
| 1787970713 | 27.78° C | 79% | 1004 hPa | 0 mm | - | - | - |
| 1787970413 | 27.78° C | 79% | 1004.1 hPa | 0 mm | - | - | - |
| 1787970112 | 27.78° C | 79% | 1004.1 hPa | 0 mm | - | - | - |
| 1787969812 | 28.33° C | 78% | 1004.1 hPa | 0 mm | - | - | - |
| 1787969512 | 27.78° C | 79% | 1004.1 hPa | 0 mm | - | - | - |
| 1787969212 | 28.33° C | 77% | 1004.1 hPa | 0 mm | - | - | - |
| 1787968912 | 28.89° C | 77% | 1004 hPa | 0 mm | - | - | - |
| 1787968612 | 28.89° C | 77% | 1004 hPa | 0 mm | - | - | - |
| 1787968311 | 27.78° C | 79% | 1004 hPa | 0 mm | - | - | - |
| 1787968012 | 27.78° C | 77% | 1004.3 hPa | 0 mm | - | - | - |
| 1787967712 | 27.78° C | 75% | 1004.3 hPa | 0 mm | - | - | - |
| 1787967412 | 27.78° C | 77% | 1004.4 hPa | 0 mm | - | - | - |
| 1787967112 | 28.33° C | 74% | 1004.4 hPa | 0 mm | - | - | - |
* Rain latest hour (hover to see other rain measurements)
** Current wind speed in m/s (hover to see current wind gust speed)